Tiempo atmosférico en la estación meteorológica de Autilla del Pino, Palencia (874 m.)

Fecha
DESCASC
Temp. máxima en grados centígrados (hora)
DESCASC
Temp. mínima en grados centígrados (hora)
DESCASC
Temp. media en grados centígrados
DESCASC
Racha de viento máxima en m/sg (hora)
DESCASC
Velocidad máxima media en intervalos de 10 minutos(hora)
DESCASC
Precipitaciones diarias en mm
DESCASC
Precipitaciones de 00:00 a 06:00 en mm
DESCASC
Precipitaciones de 06:00 a 12:00 en mm
DESCASC
Precipitaciones de 12:00 a 18:00 en mm
DESCASC
Precipitaciones de 18:00 a 24:00 en mm
DESCASC
10-12-2017 10 (14:10) 6.2 (11:00) 8.1 25 (23:10) 18.61 (23:10) 0.4 0 0 0.3 0.1
09-12-2017 9.3 (16:50) 1.6 (04:20) 5.5 16.11 (23:40) 11.67 (23:00) 0 0 0 0 0
08-12-2017 7 (16:40) 3.1 (00:40) 5 7.5 (06:50) 5.56 (09:50) 0.6 0 0 0 0.6
07-12-2017 7.1 (15:40) -3.9 (-00:0) 1.6 8.89 (21:30) 6.67 (21:40) 0.5 0 0 0 0.5
06-12-2017 -1.5 (15:40) -6.1 (-00:0) -3.8 2.5 (00:50) 1.67 (00:40) 0 0 0 0 0
05-12-2017 4.7 (15:40) -5.1 (-00:0) -0.2 5.83 (01:20) 4.72 (02:00) 0 0 0 0 0
04-12-2017 5.7 (16:20) -4.3 (-00:0) 0.7 8.33 (16:30) 5.83 (16:30) 0 0 0 0 0
03-12-2017 5.2 (15:10) -3.3 (-00:0) 0.9 8.33 (08:10) 5.28 (14:30) 0 0 0 0 0
02-12-2017 3.9 (15:50) -4.6 (-00:0) -0.3 8.61 (21:40) 6.39 (21:50) 0 0 0 0 0
01-12-2017 2.6 (15:50) -3.4 (-00:0) -0.4 13.06 (09:10) 9.72 (09:10) 1.9 0 1.8 0.1 0
30-11-2017 4.8 (15:50) -5 (-00:0) -0.1 7.5 (18:30) 5.83 (23:59) 0 0 0 0 0
29-11-2017 6.2 (16:00) -4.6 (-00:0) 0.8 8.06 (23:10) 5.83 (23:00) 0.1 0 0 0 0.1
28-11-2017 6.8 (15:10) -3.6 (-00:0) 1.6 4.72 (19:00) 3.89 (19:00) 0 0 0 0 0
27-11-2017 7.4 (16:10) -5.1 (-00:0) 1.2 4.72 (02:10) 4.44 (02:10) 0 0 0 0 0
26-11-2017 7.6 (14:50) -2.2 (-00:0) 2.7 7.78 (13:20) 5.83 (13:20) 0 0 0 0 0
25-11-2017 10 (00:10) 0.9 (00:00) 5.4 13.06 (02:00) 9.72 (02:10) 8.2 8.2 0 0 0
24-11-2017 13.2 (15:20) 7.5 (00:00) 10.3 14.17 (00:20) 10.28 (00:40) 2.8 2.7 0 0 0.1
23-11-2017 15.3 (16:30) 8.8 (00:00) 12.1 15 (15:40) 11.39 (15:40) 0 0 0 0 0
22-11-2017 17 (16:20) 0.2 (00:00) 8.6 12.78 (20:40) 9.72 (20:30) 0 0 0 0 0
21-11-2017 15 (15:40) -0.5 (-00:0) 7.3 4.44 (09:30) 3.61 (22:40) 0 0 0 0 0
20-11-2017 16.2 (15:50) -1.2 (-00:0) 7.5 4.72 (00:10) 4.17 (00:10) 0 0 0 0 0
19-11-2017 14.6 (16:30) -1.3 (-00:0) 6.7 8.61 (00:10) 6.94 (00:10) 0 0 0 0 0
18-11-2017 14 (14:40) 1.8 (00:00) 7.9 9.44 (23:59) 7.78 (21:30) 0 0 0 0 0
17-11-2017 16.8 (15:40) 1.8 (00:00) 9.3 7.5 (20:50) 5.83 (23:30) 0 0 0 0 0
16-11-2017 16.5 (15:40) -0.2 (00:00) 8.1 4.44 (22:40) 3.89 (22:40) 0 0 0 0 0
15-11-2017 12.9 (17:10) -1.8 (-00:0) 5.5 9.17 (01:20) 7.5 (01:10) 0 0 0 0 0

Gráficas

Temp. máximas Temp. mínimas Temp. medias Precipitaciones Rachas de viento máximas Velocidades máximas media en intervalos de 10 minutos

Datos horarios

Fecha y hora oficial Temperatura (ºC) Velocidad del viento (km/h) Dirección del viento Racha (km/h) Dirección de racha Precipitación (mm) Presión (hPa) Tendencia (hPa) Humedad (%)
2017-12-14 23:00:00 7.6 31 Oeste 48 Oeste 0 -- -- 99
2017-12-14 22:00:00 8.3 29 Oeste 50 Oeste 0 -- -- 99
2017-12-14 21:00:00 8.7 38 Oeste 50 Oeste 0 -- -- 99
2017-12-14 20:00:00 9.1 38 Oeste 52 Oeste 0 -- -- 99
2017-12-14 19:00:00 9.2 33 Oeste 51 Oeste 0 -- -- 99
2017-12-14 18:00:00 9.9 37 Oeste 55 Oeste 0 -- -- 99
2017-12-14 17:00:00 10.3 35 Oeste 50 Oeste 0 -- -- 99
2017-12-14 16:00:00 10.9 37 Oeste 50 Oeste 0 -- -- 99
2017-12-14 15:00:00 11.5 40 Oeste 52 Oeste 0 -- -- 99
2017-12-14 14:00:00 11 35 Oeste 49 Oeste 0 -- -- 99
2017-12-14 13:00:00 11.5 37 Oeste 53 Oeste 0 -- -- 99
2017-12-14 12:00:00 10.1 40 Oeste 55 Oeste 0 -- -- 99
2017-12-14 11:00:00 9.3 40 Oeste 54 Oeste 0 -- -- 99
2017-12-14 10:00:00 8.9 42 Oeste 57 Oeste 0 -- -- 99
2017-12-14 09:00:00 8.8 43 Oeste 59 Oeste 0 -- -- 99
2017-12-14 08:00:00 8.6 40 Oeste 55 Oeste 0 -- -- 99
2017-12-14 07:00:00 8.3 41 Oeste 54 Oeste 0 -- -- 99
2017-12-14 06:00:00 8 34 Oeste 51 Oeste 0 -- -- 99
2017-12-14 05:00:00 7.8 32 Oeste 48 Oeste 0 -- -- 99
2017-12-14 04:00:00 7.7 36 Oeste 48 Oeste 0 -- -- 99
2017-12-14 03:00:00 7.7 34 Oeste 49 Oeste 0 -- -- 99
2017-12-14 02:00:00 7.5 38 Oeste 51 Oeste 0 -- -- 99
2017-12-14 01:00:00 7.4 39 Oeste 57 Oeste 0 -- -- 99
2017-12-14 00:00:00 7 39 Oeste 48 Oeste 0 -- -- 99
2017-12-13 23:00:00 6.4 33 Oeste 44 Oeste 0 -- -- 99
2017-12-13 22:00:00 6.4 31 Oeste 44 Oeste 0 -- -- 99
2017-12-13 21:00:00 6.2 30 Oeste 44 Oeste 0 -- -- 99
2017-12-13 20:00:00 6.1 32 Oeste 44 Oeste 0 -- -- 99
2017-12-13 19:00:00 5.7 30 Oeste 52 Oeste 0 -- -- 99
2017-12-13 18:00:00 5.4 37 Oeste 50 Oeste 0 -- -- 99
2017-12-13 17:00:00 6 35 Oeste 46 Oeste 0 -- -- 99
2017-12-13 16:00:00 6.3 36 Oeste 46 Oeste 0 -- -- 99
2017-12-13 15:00:00 5.9 32 Oeste 44 Oeste 0 -- -- 99
2017-12-13 14:00:00 5.2 30 Oeste 41 Oeste 0 -- -- 99
2017-12-13 13:00:00 3.6 21 Sudoeste 30 Sudoeste 0 -- -- 99
2017-12-13 12:00:00 2.3 23 Sudoeste 32 Sudoeste 0 -- -- 99
2017-12-13 11:00:00 1.3 17 Sudoeste 22 Sudoeste 0 -- -- 99
2017-12-13 10:00:00 0.2 16 Sudoeste 21 Sudoeste 0 -- -- 99
2017-12-13 09:00:00 0.2 12 Sudoeste 20 Oeste 0 -- -- 99
2017-12-13 08:00:00 0.9 17 Oeste 21 Oeste 0 -- -- 99
2017-12-13 07:00:00 -0.5 11 Sudoeste 23 Sudoeste 0 -- -- 99
2017-12-13 06:00:00 -0.3 18 Sudoeste 21 Sudoeste 0 -- -- 99
2017-12-13 05:00:00 -0.6 17 Sudoeste 20 Sudoeste 0 -- -- 99
2017-12-13 04:00:00 -1.5 15 Sudoeste 18 Sudoeste 0 -- -- 99
2017-12-13 03:00:00 -1.8 14 Sudoeste 19 Sur 0 -- -- 99
2017-12-13 02:00:00 -1.6 13 Sudoeste 16 Sudoeste 0 -- -- 99
2017-12-13 01:00:00 -1.4 10 Sudoeste 12 Sudoeste 0 -- -- 99
2017-12-13 00:00:00 -0.1 10 Oeste 15 Oeste 0 -- -- 99
2017-12-12 23:00:00 -0.7 11 Oeste 15 Oeste 0 -- -- 99
2017-12-12 22:00:00 -0.7 12 Sudoeste 15 Sudoeste 0 -- -- 99
2017-12-12 21:00:00 -0.1 13 Oeste 17 Oeste 0 -- -- 99
2017-12-12 20:00:00 0.4 15 Sudoeste 17 Sudoeste 0 -- -- 99
2017-12-12 19:00:00 0.3 11 Sudoeste 16 Oeste 0 -- -- 99
2017-12-12 18:00:00 2.1 14 Oeste 18 Oeste 0 -- -- 99
2017-12-12 17:00:00 4.5 15 Oeste 19 Oeste 0 -- -- 90
2017-12-12 16:00:00 4.5 15 Oeste 23 Noroeste 0 -- -- 91
2017-12-12 15:00:00 4.5 16 Oeste 24 Oeste 0 -- -- 93
2017-12-12 14:00:00 3.6 18 Oeste 27 Oeste 0 -- -- 96
2017-12-12 13:00:00 2.6 16 Oeste 24 Oeste 0 -- -- 97
2017-12-12 12:00:00 1.8 18 Oeste 23 Oeste 0 -- -- 99
2017-12-12 11:00:00 0 12 Sudoeste 16 Sudoeste 0 -- -- 99
2017-12-12 10:00:00 -2.2 14 Sudoeste 17 Sudoeste 0 -- -- 99
2017-12-12 09:00:00 -3.1 12 Sudoeste 21 Noroeste 0 -- -- 99
2017-12-12 08:00:00 -1.6 16 Oeste 18 Noroeste 0 -- -- 99
2017-12-12 07:00:00 -2.3 12 Oeste 37 Oeste 0 -- -- 99
2017-12-12 06:00:00 -2.1 13 Oeste 18 Oeste 0 -- -- 99
2017-12-12 05:00:00 -1.8 14 Oeste 18 Noroeste 0 -- -- 99
2017-12-12 04:00:00 -1.4 16 Oeste 21 Oeste 0 -- -- 99
2017-12-12 03:00:00 -1.5 17 Oeste 21 Oeste 0 -- -- 99
2017-12-12 02:00:00 -1.4 16 Noroeste 18 Noroeste 0 -- -- 99
2017-12-12 01:00:00 -1.1 15 Oeste 18 Oeste 0 -- -- 99
2017-12-12 00:00:00 -1 14 Noroeste 21 Noroeste 0 -- -- 99
2017-12-11 23:00:00 -1 19 Noroeste 28 Noroeste 0 -- -- 99
2017-12-11 22:00:00 -0.6 19 Noroeste 27 Noroeste 0 -- -- 99
2017-12-11 21:00:00 -0.4 19 Noroeste 26 Noroeste 0 -- -- 99
2017-12-11 20:00:00 0.8 14 Noroeste 28 Norte 0 -- -- 99
2017-12-11 19:00:00 1.9 21 Noroeste 37 Noroeste 0 -- -- 99
2017-12-11 18:00:00 3 19 Noroeste 42 Oeste 0 -- -- 99
2017-12-11 17:00:00 3.9 31 Oeste 46 Oeste 0 -- -- 99
2017-12-11 16:00:00 4.5 35 Oeste 45 Oeste 0 -- -- 97
2017-12-11 15:00:00 4.1 36 Oeste 48 Oeste 0 -- -- 97
2017-12-11 14:00:00 4.2 31 Oeste 53 Oeste 0 -- -- 98
2017-12-11 13:00:00 4.1 43 Oeste 55 Oeste 0 -- -- 99
2017-12-11 12:00:00 3.4 40 Oeste 56 Oeste 0 -- -- 99
2017-12-11 11:00:00 2.5 33 Oeste 46 Oeste 0 -- -- 99
2017-12-11 10:00:00 2.2 34 Oeste 45 Oeste 0 -- -- 99
2017-12-11 09:00:00 1.6 31 Oeste 39 Oeste 0 -- -- 99
2017-12-11 08:00:00 1.7 31 Oeste 58 Oeste 0 -- -- 99
2017-12-11 07:00:00 3.3 38 Oeste 53 Oeste 0 -- -- 99
2017-12-11 06:00:00 3.5 33 Oeste 47 Oeste 0.1 -- -- 99
2017-12-11 05:00:00 3.6 33 Oeste 56 Sudoeste 0 -- -- 99
2017-12-11 04:00:00 3.7 37 Sudoeste 60 Oeste 0 -- -- 99
2017-12-11 03:00:00 3.5 44 Oeste 71 Oeste 1.3 -- -- 99
2017-12-11 02:00:00 3.8 40 Oeste 64 Oeste 2.6 -- -- 99
2017-12-11 01:00:00 4.7 50 Oeste 92 Sudoeste 2.6 -- -- 99
2017-12-11 00:00:00 8.5 62 Sudoeste 90 Sudoeste 0 -- -- 99
2017-12-10 23:00:00 8.5 63 Sudoeste 87 Sudoeste 0.1 -- -- 99
2017-12-10 22:00:00 8.2 53 Sudoeste 78 Sudoeste 0 -- -- 99
2017-12-10 21:00:00 8.5 59 Sudoeste 88 Sudoeste 0 -- -- 98
2017-12-10 20:00:00 8.3 62 Sudoeste 83 Sudoeste 0 -- -- 99
2017-12-10 19:00:00 8.8 59 Sudoeste 85 Sudoeste 0 -- -- 99
2017-12-10 18:00:00 8.9 55 Sudoeste 77 Sudoeste 0.1 -- -- 99
2017-12-10 17:00:00 8.9 52 Oeste 74 Oeste 0.2 -- -- 99
2017-12-10 16:00:00 8.7 46 Sudoeste 66 Sudoeste 0 -- -- 99
2017-12-10 15:00:00 9 54 Sudoeste 74 Sudoeste 0 -- -- 99
2017-12-10 14:00:00 9.9 54 Sudoeste 76 Oeste 0 -- -- 99
2017-12-10 13:00:00 9.6 51 Oeste 67 Oeste 0 -- -- 99
2017-12-10 12:00:00 9.5 46 Oeste 73 Oeste 0 -- -- 99
2017-12-10 11:00:00 8.7 48 Oeste 68 Sudoeste 0 -- -- 99
2017-12-10 10:00:00 7.8 40 Sudoeste 56 Sudoeste 0 -- -- 99
2017-12-10 09:00:00 7.5 37 Oeste 58 Oeste 0 -- -- 99
2017-12-10 08:00:00 7.5 45 Oeste 60 Oeste 0 -- -- 99
2017-12-10 07:00:00 7.5 36 Oeste 52 Oeste 0 -- -- 99
2017-12-10 06:00:00 7.3 34 Oeste 45 Oeste 0 -- -- 99
2017-12-10 05:00:00 7 39 Oeste 53 Oeste 0 -- -- 99
2017-12-10 04:00:00 7.2 39 Oeste 58 Oeste 0 -- -- 99
2017-12-10 03:00:00 7.2 40 Oeste 50 Oeste 0 -- -- 99
2017-12-10 02:00:00 7.4 40 Oeste 56 Oeste 0 -- -- 99
2017-12-10 01:00:00 7.5 41 Oeste 56 Oeste 0 -- -- 99
2017-12-10 00:00:00 7.9 42 Oeste 58 Oeste 0 -- -- 99
2017-12-09 23:00:00 8.1 42 Oeste 55 Oeste 0 -- -- 99
2017-12-09 22:00:00 8.2 41 Oeste 54 Oeste 0 -- -- 99
2017-12-09 21:00:00 8.8 40 Oeste 54 Oeste 0 -- -- 99
2017-12-09 20:00:00 8.8 35 Oeste 48 Oeste 0 -- -- 99
2017-12-09 19:00:00 8.9 33 Oeste 47 Sudoeste 0 -- -- 99
2017-12-09 18:00:00 8.7 33 Oeste 47 Oeste 0 -- -- 99
2017-12-09 17:00:00 9.3 32 Oeste 43 Oeste 0 -- -- 99
2017-12-09 16:00:00 8.9 22 Oeste 28 Oeste 0 -- -- 99
2017-12-09 15:00:00 8.3 18 Oeste 26 Oeste 0 -- -- 99
2017-12-09 14:00:00 7.5 17 Oeste 22 Oeste 0 -- -- 99
2017-12-09 13:00:00 6.4 14 Oeste 19 Oeste 0 -- -- 99
2017-12-09 12:00:00 5.7 12 Oeste 16 Oeste 0 -- -- 99
2017-12-09 11:00:00 4.8 12 Sudoeste 15 Sudoeste 0 -- -- 99
2017-12-09 10:00:00 3.2 6 Sur 9 Sudoeste 0 -- -- 99
2017-12-09 09:00:00 2.6 3 Sudeste 7 Sur 0 -- -- 99
2017-12-09 08:00:00 2.4 0 Calma 4 Este 0 -- -- 99
2017-12-09 07:00:00 2.1 0 Calma 3 Sudeste 0 -- -- 99
2017-12-09 06:00:00 2.2 4 Este 10 Este 0 -- -- 99
2017-12-09 05:00:00 1.9 4 Este 8 Este 0 -- -- 99
2017-12-09 04:00:00 2.1 5 Este 6 Este 0 -- -- 99
2017-12-09 03:00:00 2.5 6 Este 11 Este 0 -- -- 99
2017-12-09 02:00:00 3.6 8 Nordeste 13 Este 0 -- -- 99
2017-12-09 01:00:00 3.1 12 Nordeste 15 Este 0 -- -- 99
2017-12-09 00:00:00 4.4 12 Este 17 Este 0 -- -- 99
2017-12-08 23:00:00 5 13 Este 18 Este 0.1 -- -- 99
2017-12-08 22:00:00 5.3 12 Este 15 Este 0.1 -- -- 99
2017-12-08 21:00:00 5.6 11 Este 15 Este 0.2 -- -- 99
2017-12-08 20:00:00 6.1 7 Este 10 Este 0.1 -- -- 99
2017-12-08 19:00:00 6.2 5 Este 8 Este 0.1 -- -- 99
2017-12-08 18:00:00 6.6 3 Este 5 Este 0 -- -- 99
2017-12-08 17:00:00 6.9 5 Noroeste 10 Oeste 0 -- -- 99
2017-12-08 16:00:00 6.7 9 Oeste 13 Oeste 0 -- -- 99
2017-12-08 15:00:00 6.5 11 Oeste 17 Oeste 0 -- -- 99
2017-12-08 14:00:00 6 13 Oeste 21 Noroeste 0 -- -- 99
2017-12-08 13:00:00 5.5 17 Oeste 22 Oeste 0 -- -- 99
2017-12-08 12:00:00 5.1 17 Oeste 21 Oeste 0 -- -- 99
2017-12-08 11:00:00 4.9 15 Oeste 22 Oeste 0 -- -- 99
2017-12-08 10:00:00 4.5 19 Oeste 26 Oeste 0 -- -- 99
2017-12-08 09:00:00 4.2 15 Oeste 23 Oeste 0 -- -- 99
2017-12-08 08:00:00 4 16 Oeste 21 Oeste 0 -- -- 99
2017-12-08 07:00:00 3.9 19 Oeste 27 Oeste 0 -- -- 99
2017-12-08 06:00:00 4 15 Oeste 23 Oeste 0 -- -- 99
2017-12-08 05:00:00 3.9 16 Oeste 22 Sudoeste 0 -- -- 99
2017-12-08 04:00:00 3.8 17 Oeste 22 Oeste 0 -- -- 99
2017-12-08 03:00:00 3.7 12 Oeste 15 Oeste 0 -- -- 99
2017-12-08 02:00:00 3.8 12 Oeste 16 Oeste 0 -- -- 99
2017-12-08 01:00:00 3.3 13 Oeste 23 Oeste 0 -- -- 99
2017-12-08 00:00:00 3.5 18 Oeste 24 Oeste 0 -- -- 99
2017-12-07 23:00:00 3.4 16 Oeste 27 Oeste 0.5 -- -- 99
2017-12-07 22:00:00 4.1 19 Oeste 32 Oeste 0 -- -- 94
2017-12-07 21:00:00 4.5 15 Oeste 21 Oeste 0 -- -- 93
2017-12-07 20:00:00 4.3 12 Sudoeste 16 Oeste 0 -- -- 92
2017-12-07 19:00:00 4.5 8 Sur 17 Oeste 0 -- -- 91
2017-12-07 18:00:00 4.3 6 Oeste 16 Oeste 0 -- -- 91
2017-12-07 17:00:00 5.3 13 Noroeste 18 Noroeste 0 -- -- 85
2017-12-07 16:00:00 6.5 10 Oeste 17 Oeste 0 -- -- 84
2017-12-07 15:00:00 5.7 14 Noroeste 21 Noroeste 0 -- -- 91
2017-12-07 14:00:00 5.1 11 Noroeste 18 Noroeste 0 -- -- 98
2017-12-07 13:00:00 3.6 10 Sudoeste 16 Sudoeste 0 -- -- 99
2017-12-07 12:00:00 1.9 11 Sudoeste 15 Sudoeste 0 -- -- 99
2017-12-07 11:00:00 -0.3 6 Sur 8 Sur 0 -- -- 99
2017-12-07 10:00:00 -2 0 Calma 4 Sur 0 -- -- 99
2017-12-07 09:00:00 -2.3 3 Sudoeste 4 Sudoeste 0 -- -- 99
2017-12-07 08:00:00 -2.1 0 Calma 4 Sur 0 -- -- 99
2017-12-07 07:00:00 -2.6 0 Calma 6 Noroeste 0 -- -- 99
2017-12-07 06:00:00 -3 2 Noroeste 7 Noroeste 0 -- -- 99
2017-12-07 05:00:00 -3.4 0 Calma 5 Sudeste 0 -- -- 99
2017-12-07 04:00:00 -3.4 0 Calma 3 Norte 0 -- -- 99
2017-12-07 03:00:00 -3.5 3 Norte 5 Noroeste 0 -- -- 99
2017-12-07 02:00:00 -3.5 0 Calma 0 Calma 0 -- -- 99
2017-12-07 01:00:00 -3.6 0 Calma -- -- 0 -- -- 99
2017-12-07 00:00:00 -3.7 0 Calma 3 Sur 0 -- -- 99
2017-12-06 23:00:00 -3.9 0 Calma 3 Noroeste 0 -- -- 99
2017-12-06 22:00:00 -3.3 0 Calma 4 Sudoeste 0 -- -- 99
2017-12-06 21:00:00 -3.5 0 Calma 4 Sudeste 0 -- -- 99
2017-12-06 20:00:00 -3.1 0 Calma 0 Calma 0 -- -- 99
2017-12-06 19:00:00 -2.5 0 Calma 3 Oeste 0 -- -- 99
2017-12-06 18:00:00 -2 0 Calma 3 Sudoeste 0 -- -- 99
2017-12-06 17:00:00 -2 0 Calma 2 Sudeste 0 -- -- 99
2017-12-06 16:00:00 -1.8 0 Calma 4 Sudeste 0 -- -- 99
2017-12-06 15:00:00 -2.2 0 Calma 4 Norte 0 -- -- 99
2017-12-06 14:00:00 -2.4 0 Calma 4 Este 0 -- -- 99
2017-12-06 13:00:00 -3.7 2 Nordeste 5 Noroeste 0 -- -- 99
2017-12-06 12:00:00 -4.2 0 Calma 3 Norte 0 -- -- 99
2017-12-06 11:00:00 -5 0 Calma 4 Sudeste 0 -- -- 99
2017-12-06 10:00:00 -5.3 0 Calma 5 Este 0 -- -- 99
2017-12-06 09:00:00 -5.7 3 Este 4 Este 0 -- -- 99
2017-12-06 08:00:00 -5.8 0 Calma 4 Este 0 -- -- 99
2017-12-06 07:00:00 -5.6 3 Este 7 Nordeste 0 -- -- 99
2017-12-06 06:00:00 -5.5 3 Nordeste 5 Nordeste 0 -- -- 99
2017-12-06 05:00:00 -5.1 0 Calma 5 Este 0 -- -- 99
2017-12-06 04:00:00 -5.2 0 Calma 5 Sudeste 0 -- -- 99
2017-12-06 03:00:00 -5.4 6 Sudeste 8 Sudeste 0 -- -- 99
2017-12-06 02:00:00 -6 3 Sudeste 6 Sudeste 0 -- -- 99
2017-12-06 01:00:00 -5.7 5 Sudeste 9 Sudeste 0 -- -- 99
2017-12-06 00:00:00 -5.1 4 Sur 10 Sur 0 -- -- 99
2017-12-05 23:00:00 -4.8 5 Sur 7 Sur 0 -- -- 99
2017-12-05 22:00:00 -3.4 5 Sur 14 Sudeste 0 -- -- 99
2017-12-05 21:00:00 -2.9 9 Sur 14 Sudeste 0 -- -- 99
2017-12-05 20:00:00 -2.6 11 Sur 15 Sur 0 -- -- 99
2017-12-05 19:00:00 -2.7 10 Sur 13 Sur 0 -- -- 99
2017-12-05 18:00:00 -2.3 10 Sur 13 Sur 0 -- -- 99
2017-12-05 17:00:00 -0.5 10 Sur 13 Sur 0 -- -- 99
2017-12-05 16:00:00 4 5 Este 9 Este 0 -- -- 92
2017-12-05 15:00:00 3.7 5 Este 10 Sudeste 0 -- -- 95
2017-12-05 14:00:00 3.1 3 Oeste 6 Noroeste 0 -- -- 99
2017-12-05 13:00:00 2.3 3 Sur 9 Este 0 -- -- 99
2017-12-05 12:00:00 1.9 5 Este 10 Este 0 -- -- 99
2017-12-05 11:00:00 0.3 7 Nordeste 10 Nordeste 0 -- -- 99
2017-12-05 10:00:00 -1.5 5 Nordeste 9 Nordeste 0 -- -- 99
2017-12-05 09:00:00 -4.1 9 Nordeste 12 Nordeste 0 -- -- 99
2017-12-05 08:00:00 -4.1 11 Norte 13 Norte 0 -- -- 99
2017-12-05 07:00:00 -3.9 10 Nordeste 14 Nordeste 0 -- -- 99
2017-12-05 06:00:00 -2.6 8 Nordeste 12 Nordeste 0 -- -- 99
2017-12-05 05:00:00 -2.5 11 Nordeste 18 Nordeste 0 -- -- 99
2017-12-05 04:00:00 -2.6 11 Nordeste 15 Nordeste 0 -- -- 99
2017-12-05 03:00:00 -1.4 10 Nordeste 17 Nordeste 0 -- -- 99
2017-12-05 02:00:00 0.1 17 Nordeste 21 Nordeste 0 -- -- 99
2017-12-05 01:00:00 0.1 16 Nordeste 19 Nordeste 0 -- -- 99
2017-12-05 00:00:00 0 13 Nordeste 17 Nordeste 0 -- -- 99
2017-12-04 23:00:00 -0.3 12 Este 18 Nordeste 0 -- -- 99
2017-12-04 22:00:00 0.4 15 Este 21 Este 0 -- -- 99
2017-12-04 21:00:00 0 12 Este 19 Este 0 -- -- 99
2017-12-04 20:00:00 0.8 15 Este 20 Este 0 -- -- 99
2017-12-04 19:00:00 2 15 Este 25 Este 0 -- -- 98
2017-12-04 18:00:00 3.3 19 Nordeste 27 Nordeste 0 -- -- 93
2017-12-04 17:00:00 4.7 18 Este 30 Nordeste 0 -- -- 89
2017-12-04 16:00:00 5.4 19 Este 26 Este 0 -- -- 87
2017-12-04 15:00:00 5.2 21 Este 27 Este 0 -- -- 90
2017-12-04 14:00:00 5.1 14 Nordeste 19 Nordeste 0 -- -- 94
2017-12-04 13:00:00 3.4 10 Nordeste 15 Nordeste 0 -- -- 98
2017-12-04 12:00:00 2.5 6 Norte 11 Nordeste 0 -- -- 99
2017-12-04 11:00:00 1.6 6 Nordeste 10 Nordeste 0 -- -- 99
2017-12-04 10:00:00 -0.5 6 Este 11 Este 0 -- -- 99
2017-12-04 09:00:00 -2.1 7 Este 17 Nordeste 0 -- -- 99
2017-12-04 08:00:00 -4 7 Norte 9 Nordeste 0 -- -- 99
2017-12-04 07:00:00 -4.1 8 Nordeste 12 Nordeste 0 -- -- 99
2017-12-04 06:00:00 -1.6 5 Noroeste 9 Este 0 -- -- 99
2017-12-04 05:00:00 -0.8 6 Noroeste 6 Noroeste 0 -- -- 99
2017-12-04 04:00:00 -0.9 3 Oeste 5 Oeste 0 -- -- 99
2017-12-04 03:00:00 -0.3 5 Noroeste 8 Oeste 0 -- -- 99
2017-12-04 02:00:00 0.1 4 Oeste 6 Norte 0 -- -- 99
2017-12-04 01:00:00 -0.1 3 Sudoeste 5 Noroeste 0 -- -- 99
2017-12-04 00:00:00 -1.7 5 Oeste 10 Sudoeste 0 -- -- 99
2017-12-03 23:00:00 -0.1 6 Sudoeste 8 Sudoeste 0 -- -- 99
2017-12-03 22:00:00 0.6 6 Sur 8 Sur 0 -- -- 99
2017-12-03 21:00:00 -0.8 6 Oeste 8 Sudoeste 0 -- -- 99
2017-12-03 20:00:00 -0.6 6 Sudoeste 10 Sudeste 0 -- -- 99
2017-12-03 19:00:00 0.8 6 Este 9 Este 0 -- -- 96
2017-12-03 18:00:00 2 12 Este 16 Este 0 -- -- 91
2017-12-03 17:00:00 3.9 12 Este 23 Nordeste 0 -- -- 84
2017-12-03 16:00:00 4.6 16 Nordeste 25 Nordeste 0 -- -- 81
2017-12-03 15:00:00 4.2 17 Nordeste 24 Nordeste 0 -- -- 82
2017-12-03 14:00:00 4.4 17 Nordeste 26 Nordeste 0 -- -- 86
2017-12-03 13:00:00 3.3 15 Nordeste 26 Nordeste 0 -- -- 91
2017-12-03 12:00:00 2.5 16 Norte 21 Norte 0 -- -- 98
2017-12-03 11:00:00 0.4 12 Norte 16 Norte 0 -- -- 99
2017-12-03 10:00:00 -1.4 9 Noroeste 10 Noroeste 0 -- -- 99
2017-12-03 09:00:00 -1.4 9 Norte 30 Noroeste 0 -- -- 99
2017-12-03 08:00:00 -2.9 10 Noroeste 13 Noroeste 0 -- -- 99
2017-12-03 07:00:00 -1.6 3 Norte 5 Nordeste 0 -- -- 99
2017-12-03 06:00:00 -2 4 Nordeste 7 Nordeste 0 -- -- 99
2017-12-03 05:00:00 -2.4 6 Nordeste 13 Nordeste 0 -- -- 99
2017-12-03 04:00:00 -2.6 11 Nordeste 18 Norte 0 -- -- 99
2017-12-03 03:00:00 -1.9 15 Norte 18 Nordeste 0 -- -- 99
2017-12-03 02:00:00 -1.5 15 Norte 18 Nordeste 0 -- -- 99
2017-12-03 01:00:00 -1 14 Nordeste 24 Nordeste 0 -- -- 99
2017-12-03 00:00:00 -0.2 15 Nordeste 24 Nordeste 0 -- -- 99
2017-12-02 23:00:00 -0.2 11 Nordeste 24 Nordeste 0 -- -- 99
2017-12-02 22:00:00 0.3 21 Nordeste 31 Nordeste 0 -- -- 99
2017-12-02 21:00:00 0.3 19 Nordeste 30 Nordeste 0 -- -- 99
2017-12-02 20:00:00 0.9 18 Nordeste 27 Nordeste 0 -- -- 98
2017-12-02 19:00:00 1.1 12 Este 19 Nordeste 0 -- -- 97
2017-12-02 18:00:00 2.1 5 Nordeste 12 Este 0 -- -- 91
2017-12-02 17:00:00 3 5 Este 8 Este 0 -- -- 81
2017-12-02 16:00:00 3.2 3 Norte 9 Nordeste 0 -- -- 78
2017-12-02 15:00:00 3.1 4 Norte 9 Norte 0 -- -- 83
2017-12-02 14:00:00 2 6 Noroeste 12 Oeste 0 -- -- 95
2017-12-02 13:00:00 1 7 Noroeste 11 Noroeste 0 -- -- 99
2017-12-02 12:00:00 -0.2 9 Noroeste 11 Noroeste 0 -- -- 99
2017-12-02 11:00:00 -1 5 Noroeste 10 Norte 0 -- -- 99
2017-12-02 10:00:00 -1.9 5 Noroeste 13 Noroeste 0 -- -- 99
2017-12-02 09:00:00 -2.8 9 Noroeste 17 Oeste 0 -- -- 99
2017-12-02 08:00:00 -3.3 16 Noroeste 21 Noroeste 0 -- -- 99
2017-12-02 07:00:00 -2.5 15 Noroeste 19 Noroeste 0 -- -- 99
2017-12-02 06:00:00 -3.7 14 Oeste 20 Noroeste 0 -- -- 99
2017-12-02 05:00:00 -4.2 16 Oeste 18 Oeste 0 -- -- 99
2017-12-02 04:00:00 -4.1 15 Oeste 18 Oeste 0 -- -- 99
2017-12-02 03:00:00 -4 14 Oeste 20 Oeste 0 -- -- 99
2017-12-02 02:00:00 -3.3 16 Oeste 18 Oeste 0 -- -- 99
2017-12-02 01:00:00 -3 15 Oeste 16 Oeste 0 -- -- 99
2017-12-02 00:00:00 -3 15 Oeste 16 Oeste 0 -- -- 99
2017-12-01 23:00:00 -3 3 Oeste 6 Oeste 0 -- -- 99
2017-12-01 22:00:00 -3.1 4 Norte 13 Nordeste 0 -- -- 99
2017-12-01 21:00:00 -2.9 8 Nordeste 17 Nordeste 0 -- -- 99
2017-12-01 20:00:00 -2.1 11 Nordeste 28 Nordeste 0 -- -- 98
2017-12-01 19:00:00 -1.2 17 Nordeste 27 Nordeste 0 -- -- 95
2017-12-01 18:00:00 -0.7 17 Nordeste 27 Nordeste 0 -- -- 92
2017-12-01 17:00:00 0.9 16 Nordeste 28 Nordeste 0 -- -- 92
2017-12-01 16:00:00 1.5 24 Nordeste 38 Nordeste 0 -- -- 91
2017-12-01 15:00:00 1.3 18 Nordeste 40 Nordeste 0 -- -- 99
2017-12-01 14:00:00 0.4 28 Nordeste 36 Nordeste 0 -- -- 99
2017-12-01 13:00:00 0.5 13 Nordeste 36 Nordeste 0.1 -- -- 99
2017-12-01 12:00:00 -0.4 10 Nordeste 24 Noroeste 1.8 -- -- 99
2017-12-01 11:00:00 0.2 21 Noroeste 44 Oeste 0 -- -- 99
2017-12-01 10:00:00 0.1 32 Oeste 47 Oeste 0 -- -- 99
2017-12-01 09:00:00 -0.1 33 Oeste 46 Oeste 0 -- -- 99
2017-12-01 08:00:00 -0.3 28 Oeste 41 Oeste 0 -- -- 99
2017-12-01 07:00:00 -1.3 22 Oeste 36 Oeste 0 -- -- 99
2017-12-01 06:00:00 -1.2 24 Oeste 35 Oeste 0 -- -- 99
2017-12-01 05:00:00 -2.2 21 Oeste 31 Oeste 0 -- -- 99
2017-12-01 04:00:00 -1.2 23 Oeste 38 Oeste 0 -- -- 99
2017-12-01 03:00:00 -1.4 23 Oeste 33 Oeste 0 -- -- 99
2017-12-01 02:00:00 -0.9 23 Oeste 32 Oeste 0 -- -- 99
2017-12-01 01:00:00 -1.4 21 Noroeste 31 Noroeste 0 -- -- 99
2017-12-01 00:00:00 -1.5 21 Noroeste 27 Oeste 0 -- -- 99
2017-11-30 23:00:00 -0.7 19 Noroeste 26 Noroeste 0 -- -- 97
2017-11-30 22:00:00 -0.7 17 Noroeste 21 Noroeste 0 -- -- 94
2017-11-30 21:00:00 -0.7 14 Noroeste 24 Noroeste 0 -- -- 91
2017-11-30 20:00:00 0.8 18 Noroeste 24 Noroeste 0 -- -- 86
2017-11-30 19:00:00 1.4 15 Noroeste 27 Sudoeste 0 -- -- 87
2017-11-30 18:00:00 1.4 14 Oeste 21 Sudoeste 0 -- -- 88
2017-11-30 17:00:00 4.1 15 Oeste 22 Oeste 0 -- -- 75
2017-11-30 16:00:00 4.5 16 Oeste 25 Oeste 0 -- -- 72
2017-11-30 15:00:00 4 15 Oeste 21 Oeste 0 -- -- 73
2017-11-30 14:00:00 3.6 9 Oeste 19 Oeste 0 -- -- 75
2017-11-30 13:00:00 2.5 10 Oeste 15 Oeste 0 -- -- 90
2017-11-30 12:00:00 1.2 9 Oeste 12 Oeste 0 -- -- 98
2017-11-30 11:00:00 -0.2 5 Noroeste 9 Noroeste 0 -- -- 99
2017-11-30 10:00:00 -2 5 Oeste 9 Noroeste 0 -- -- 99
2017-11-30 09:00:00 -4.1 6 Noroeste 8 Noroeste 0 -- -- 98
2017-11-30 08:00:00 -4.4 6 Norte 10 Norte 0 -- -- 99
2017-11-30 07:00:00 -4.9 9 Norte 11 Norte 0 -- -- 99
2017-11-30 06:00:00 -4 7 Nordeste 8 Nordeste 0 -- -- 99
2017-11-30 05:00:00 -4.2 7 Norte 12 Este 0 -- -- 99
2017-11-30 04:00:00 -3.4 10 Este 15 Nordeste 0 -- -- 99
2017-11-30 03:00:00 -2.5 10 Nordeste 21 Nordeste 0 -- -- 99
2017-11-30 02:00:00 -2.4 14 Nordeste 20 Nordeste 0 -- -- 99
2017-11-30 01:00:00 -2.2 13 Nordeste 21 Nordeste 0 -- -- 99
2017-11-30 00:00:00 -1.2 15 Nordeste 29 Este 0 -- -- 99
2017-11-29 23:00:00 -0.7 21 Nordeste 26 Nordeste 0 -- -- 99
2017-11-29 22:00:00 -0.3 15 Este 23 Este 0 -- -- 99
2017-11-29 21:00:00 0.2 12 Este 18 Este 0 -- -- 98
2017-11-29 20:00:00 1.1 10 Este 21 Este 0 -- -- 97
2017-11-29 19:00:00 1.1 6 Este 21 Nordeste 0.1 -- -- 97
2017-11-29 18:00:00 3.2 16 Este 23 Este 0 -- -- 89
2017-11-29 17:00:00 4.5 12 Este 16 Este 0 -- -- 80
2017-11-29 16:00:00 6 9 Este 17 Este 0 -- -- 75
2017-11-29 15:00:00 5.6 8 Nordeste 17 Nordeste 0 -- -- 81
2017-11-29 14:00:00 3.9 9 Noroeste 15 Noroeste 0 -- -- 89
2017-11-29 13:00:00 4 7 Noroeste 13 Noroeste 0 -- -- 93
2017-11-29 12:00:00 2.4 4 Noroeste 7 Norte 0 -- -- 99
2017-11-29 11:00:00 1.3 6 Noroeste 9 Norte 0 -- -- 99
2017-11-29 10:00:00 -0.4 5 Norte 13 Norte 0 -- -- 99
2017-11-29 09:00:00 -2.7 6 Norte 13 Norte 0 -- -- 99
2017-11-29 08:00:00 -3.9 11 Norte 13 Norte 0 -- -- 99
2017-11-29 07:00:00 -3.3 9 Nordeste 12 Nordeste 0 -- -- 99
2017-11-29 06:00:00 -4 7 Norte 13 Este 0 -- -- 99
2017-11-29 05:00:00 -1.5 13 Este 16 Este 0 -- -- 99
2017-11-29 04:00:00 -1.7 13 Este 15 Este 0 -- -- 99
2017-11-29 03:00:00 -2.5 12 Este 14 Este 0 -- -- 99
2017-11-29 02:00:00 -2.9 8 Este 11 Este 0 -- -- 99
2017-11-29 01:00:00 -2.2 9 Nordeste 10 Nordeste 0 -- -- 99
2017-11-29 00:00:00 -2.6 9 Nordeste 10 Nordeste 0 -- -- 99
2017-11-28 23:00:00 -1 6 Sudeste 7 Sudeste 0 -- -- 99
2017-11-28 22:00:00 -0.2 5 Sudeste 9 Este 0 -- -- 99
2017-11-28 21:00:00 -0.4 7 Este 9 Este 0 -- -- 99
2017-11-28 20:00:00 -0.9 8 Este 17 Nordeste 0 -- -- 99
2017-11-28 19:00:00 -0.5 14 Nordeste 17 Nordeste 0 -- -- 99
2017-11-28 18:00:00 0.8 8 Nordeste 10 Nordeste 0 -- -- 99
2017-11-28 17:00:00 1.7 3 Noroeste 8 Norte 0 -- -- 99
2017-11-28 16:00:00 2.6 4 Noroeste 13 Noroeste 0 -- -- 99
2017-11-28 15:00:00 6.2 8 Oeste 12 Sudoeste 0 -- -- 95
2017-11-28 14:00:00 4 5 Noroeste 12 Sudoeste 0 -- -- 99
2017-11-28 13:00:00 5.4 5 Sur 10 Sur 0 -- -- 97
2017-11-28 12:00:00 1.4 3 Este 10 Sudoeste 0 -- -- 99
2017-11-28 11:00:00 1.4 8 Sudoeste 12 Sudoeste 0 -- -- 99
2017-11-28 10:00:00 -1.1 10 Sudoeste 12 Sudoeste 0 -- -- 99
2017-11-28 09:00:00 -2.7 10 Sur 12 Sudoeste 0 -- -- 99
2017-11-28 08:00:00 -3 6 Sudoeste 12 Sudoeste 0 -- -- 99
2017-11-28 07:00:00 -3.2 13 Sudoeste 14 Sudoeste 0 -- -- 99
2017-11-28 06:00:00 -3.1 12 Sudoeste 15 Sudoeste 0 -- -- 99
2017-11-28 05:00:00 -3.1 14 Sudoeste 15 Sudoeste 0 -- -- 99
2017-11-28 04:00:00 -2.5 11 Sudoeste 14 Sudoeste 0 -- -- 99
2017-11-28 03:00:00 -2.5 13 Sudoeste 14 Sudoeste 0 -- -- 99
2017-11-28 02:00:00 -1.8 10 Sudoeste 12 Sudoeste 0 -- -- 99
2017-11-28 01:00:00 -1.4 7 Noroeste 15 Sudoeste 0 -- -- 99
2017-11-28 00:00:00 -1.3 13 Sudoeste 17 Sudoeste 0 -- -- 99
2017-11-27 23:00:00 -0.4 6 Oeste 8 Noroeste 0 -- -- 99
2017-11-27 22:00:00 -0.1 8 Oeste 10 Oeste 0 -- -- 99
2017-11-27 21:00:00 0.2 8 Oeste 10 Oeste 0 -- -- 99
2017-11-27 20:00:00 0 7 Sudoeste 11 Sudoeste 0 -- -- 99
2017-11-27 19:00:00 1 9 Oeste 12 Oeste 0 -- -- 99
2017-11-27 18:00:00 3.9 6 Oeste 7 Noroeste 0 -- -- 94
2017-11-27 17:00:00 7 5 Oeste 8 Oeste 0 -- -- 81
2017-11-27 16:00:00 7 6 Oeste 11 Oeste 0 -- -- 80
2017-11-27 15:00:00 6.1 6 Noroeste 11 Noroeste 0 -- -- 85
2017-11-27 14:00:00 5.5 3 Oeste 10 Noroeste 0 -- -- 92
2017-11-27 13:00:00 4.7 3 Oeste 7 Este 0 -- -- 92
2017-11-27 12:00:00 3.2 3 Este 9 Este 0 -- -- 99
2017-11-27 11:00:00 1.2 6 Sudeste 9 Sudeste 0 -- -- 99
2017-11-27 10:00:00 -0.8 5 Este 9 Este 0 -- -- 99
2017-11-27 09:00:00 -2.8 5 Nordeste 7 Este 0 -- -- 99
2017-11-27 08:00:00 -4.3 7 Nordeste 13 Nordeste 0 -- -- 98
2017-11-27 07:00:00 -3.7 2 Noroeste 12 Norte 0 -- -- 99
2017-11-27 06:00:00 -3.3 7 Este 10 Este 0 -- -- 99
2017-11-27 05:00:00 -2.5 9 Este 10 Este 0 -- -- 99
2017-11-27 04:00:00 -2.4 10 Este 14 Este 0 -- -- 99
2017-11-27 03:00:00 -2 8 Este 17 Nordeste 0 -- -- 99
2017-11-27 02:00:00 -2.1 14 Nordeste 17 Nordeste 0 -- -- 99
2017-11-27 01:00:00 -2.1 10 Nordeste 13 Nordeste 0 -- -- 99
2017-11-27 00:00:00 -0.1 7 Este 13 Este 0 -- -- 99
2017-11-26 23:00:00 0.1 8 Este 12 Sudeste 0 -- -- 99
2017-11-26 22:00:00 0.1 8 Este 17 Este 0 -- -- 99
2017-11-26 21:00:00 1 12 Este 18 Este 0 -- -- 99
2017-11-26 20:00:00 2 13 Este 15 Este 0 -- -- 97
2017-11-26 19:00:00 2.7 6 Nordeste 7 Nordeste 0 -- -- 91
2017-11-26 18:00:00 5 2 Sudeste 14 Sudeste 0 -- -- 81
2017-11-26 17:00:00 6.6 10 Este 20 Este 0 -- -- 75
2017-11-26 16:00:00 7.1 12 Este 24 Sudeste 0 -- -- 72
2017-11-26 15:00:00 7.6 15 Nordeste 27 Este 0 -- -- 71
2017-11-26 14:00:00 7.2 18 Este 28 Este 0 -- -- 74
2017-11-26 13:00:00 5.8 17 Este 27 Este 0 -- -- 85
2017-11-26 12:00:00 4.2 15 Nordeste 22 Nordeste 0 -- -- 98
2017-11-26 11:00:00 3 14 Nordeste 21 Nordeste 0 -- -- 99
2017-11-26 10:00:00 1.3 12 Este 19 Nordeste 0 -- -- 99
2017-11-26 09:00:00 -1.4 8 Nordeste 14 Nordeste 0 -- -- 99
2017-11-26 08:00:00 -0.9 9 Este 18 Este 0 -- -- 99
2017-11-26 07:00:00 -0.2 12 Este 16 Este 0 -- -- 99
2017-11-26 06:00:00 -0.2 15 Este 22 Este 0 -- -- 99
2017-11-26 05:00:00 -0.3 13 Este 21 Este 0 -- -- 99
2017-11-26 04:00:00 0.4 14 Este 26 Este 0 -- -- 99
2017-11-26 03:00:00 0.3 16 Este 27 Este 0 -- -- 99
2017-11-26 02:00:00 0.1 13 Este 21 Este 0 -- -- 99
2017-11-26 01:00:00 0.6 13 Este 22 Este 0 -- -- 99
2017-11-26 00:00:00 1.1 18 Este 26 Este 0 -- -- 99
2017-11-25 23:00:00 1.4 19 Este 30 Este 0 -- -- 99
2017-11-25 22:00:00 1.5 18 Este 26 Este 0 -- -- 99
2017-11-25 21:00:00 2.3 23 Este 28 Este 0 -- -- 99
2017-11-25 20:00:00 2.7 20 Este 30 Este 0 -- -- 99
2017-11-25 19:00:00 3.3 24 Nordeste 34 Nordeste 0 -- -- 98
2017-11-25 18:00:00 4.8 23 Nordeste 32 Nordeste 0 -- -- 91
2017-11-25 17:00:00 6.5 23 Nordeste 34 Nordeste 0 -- -- 87
2017-11-25 16:00:00 8.1 21 Este 32 Este 0 -- -- 84
2017-11-25 15:00:00 7.5 24 Nordeste 36 Este 0 -- -- 87
2017-11-25 14:00:00 8.5 25 Nordeste 37 Nordeste 0 -- -- 88
2017-11-25 13:00:00 8.5 24 Este 36 Este 0 -- -- 93
2017-11-25 12:00:00 7.4 23 Este 32 Nordeste 0 -- -- 98
2017-11-25 11:00:00 6.8 25 Nordeste 34 Este 0 -- -- 99
2017-11-25 10:00:00 6.6 19 Este 28 Este 0 -- -- 99
2017-11-25 09:00:00 6.9 18 Este 31 Este 0 -- -- 99
2017-11-25 08:00:00 7.3 15 Este 24 Este 0 -- -- 99
2017-11-25 07:00:00 7.7 7 Norte 15 Noroeste 0 -- -- 99
2017-11-25 06:00:00 8.4 12 Noroeste 20 Oeste 0 -- -- 99
2017-11-25 05:00:00 9.3 17 Oeste 38 Oeste 0 -- -- 99
2017-11-25 04:00:00 9.6 27 Oeste 36 Oeste 0 -- -- 99
2017-11-25 03:00:00 9.6 28 Oeste 45 Oeste 2.2 -- -- 99
2017-11-25 02:00:00 9.6 33 Oeste 47 Oeste 4.9 -- -- 99
2017-11-25 01:00:00 9.7 26 Sudoeste 41 Sudoeste 1.1 -- -- 99
2017-11-25 00:00:00 9.9 27 Sudoeste 35 Sudoeste 0 -- -- 99
2017-11-24 23:00:00 9.3 28 Sudoeste 43 Sudoeste 0 -- -- 99
2017-11-24 22:00:00 9.7 27 Sudoeste 35 Sudoeste 0 -- -- 99
2017-11-24 21:00:00 9.9 26 Sudoeste 34 Sudoeste 0 -- -- 99
2017-11-24 20:00:00 10.4 25 Sudoeste 34 Sudoeste 0.1 -- -- 99
2017-11-24 19:00:00 9.9 17 Sudoeste 23 Sudoeste 0 -- -- 99
2017-11-24 18:00:00 10.7 18 Sudoeste 28 Sudoeste 0 -- -- 99
2017-11-24 17:00:00 12.2 18 Sudoeste 30 Oeste 0 -- -- 92
2017-11-24 16:00:00 12.5 22 Oeste 34 Oeste 0 -- -- 91
2017-11-24 15:00:00 12.2 20 Sudoeste 28 Oeste 0 -- -- 96
2017-11-24 14:00:00 12.3 22 Oeste 33 Sudoeste 0 -- -- 94
2017-11-24 13:00:00 11.6 27 Sudoeste 34 Sudoeste 0 -- -- 99
2017-11-24 12:00:00 10.4 22 Sudoeste 30 Sudoeste 0 -- -- 99
2017-11-24 11:00:00 9.8 21 Sudoeste 28 Sudoeste 0 -- -- 99
2017-11-24 10:00:00 8.7 20 Sudoeste 32 Sudoeste 0 -- -- 99
2017-11-24 09:00:00 8.3 26 Sudoeste 32 Sudoeste 0 -- -- 99
2017-11-24 08:00:00 8.7 25 Sudoeste 35 Sudoeste 0 -- -- 99
2017-11-24 07:00:00 8.5 23 Sudoeste 33 Sudoeste 0 -- -- 99
2017-11-24 06:00:00 8.3 26 Sudoeste 33 Sudoeste 0.1 -- -- 99
2017-11-24 05:00:00 8.1 19 Sudoeste 25 Sudoeste 0 -- -- 99
2017-11-24 04:00:00 7.8 11 Sur 19 Sur 0 -- -- 99
2017-11-24 03:00:00 7.7 14 Sur 24 Sudoeste 0.1 -- -- 99
2017-11-24 02:00:00 7.6 20 Sudoeste 37 Sudoeste 2.3 -- -- 99
2017-11-24 01:00:00 8.1 32 Sudoeste 51 Sudoeste 0.2 -- -- 99
2017-11-24 00:00:00 10.5 18 Sudoeste 29 Sudoeste 0 -- -- 67
2017-11-23 23:00:00 9.4 13 Sudoeste 21 Sudoeste 0 -- -- 69
2017-11-23 22:00:00 11.1 18 Sudoeste 25 Sudoeste 0 -- -- 66
2017-11-23 21:00:00 11.3 18 Sudoeste 24 Sudoeste 0 -- -- 67
2017-11-23 20:00:00 10.9 17 Sudoeste 23 Sudoeste 0 -- -- 70
2017-11-23 19:00:00 9.3 15 Sudoeste 20 Sudoeste 0 -- -- 75
2017-11-23 18:00:00 13 17 Sudoeste 37 Oeste 0 -- -- 72
2017-11-23 17:00:00 14.8 20 Oeste 42 Oeste 0 -- -- 74
2017-11-23 16:00:00 14.7 32 Oeste 54 Oeste 0 -- -- 78
2017-11-23 15:00:00 14.7 25 Sudoeste 38 Oeste 0 -- -- 81
2017-11-23 14:00:00 14.2 25 Sudoeste 37 Oeste 0 -- -- 82
2017-11-23 13:00:00 12.8 30 Oeste 43 Sudoeste 0 -- -- 88
2017-11-23 12:00:00 11 29 Sudoeste 45 Sudoeste 0 -- -- 99
2017-11-23 11:00:00 12.2 30 Sudoeste 42 Sudoeste 0 -- -- 81
2017-11-23 10:00:00 10.3 27 Sudoeste 37 Sudoeste 0 -- -- 82
2017-11-23 09:00:00 9.1 26 Sudoeste 33 Sudoeste 0 -- -- 78
2017-11-23 08:00:00 9.1 24 Sudoeste 32 Sudoeste 0 -- -- 77
2017-11-23 07:00:00 9.3 24 Sudoeste 40 Sudoeste 0 -- -- 74
2017-11-23 06:00:00 10.9 26 Sudoeste 37 Sudoeste 0 -- -- 68
2017-11-23 05:00:00 10.7 26 Sudoeste 37 Sudoeste 0 -- -- 68
2017-11-23 04:00:00 9.7 23 Sudoeste 34 Sudoeste 0 -- -- 66
2017-11-23 03:00:00 9.5 24 Sudoeste 39 Sudoeste 0 -- -- 64
2017-11-23 02:00:00 10.8 28 Sudoeste 39 Sudoeste 0 -- -- 61
2017-11-23 01:00:00 9.8 27 Sudoeste 42 Sudoeste 0 -- -- 61
2017-11-23 00:00:00 10.4 22 Sudoeste 38 Sudoeste 0 -- -- 59
2017-11-22 23:00:00 10.7 30 Sudoeste 42 Sudoeste 0 -- -- 57
2017-11-22 22:00:00 11.2 29 Sudoeste 42 Sudoeste 0 -- -- 55
2017-11-22 21:00:00 11.7 31 Sudoeste 46 Sudoeste 0 -- -- 53
2017-11-22 20:00:00 12 28 Sudoeste 39 Sudoeste 0 -- -- 52
2017-11-22 19:00:00 12.4 28 Sudoeste 37 Sudoeste 0 -- -- 51
2017-11-22 18:00:00 13.1 21 Sudoeste 29 Sudoeste 0 -- -- 51
2017-11-22 17:00:00 14.4 18 Sudoeste 34 Oeste 0 -- -- 48
2017-11-22 16:00:00 16.6 20 Sudoeste 39 Sudoeste 0 -- -- 46
2017-11-22 15:00:00 16.3 17 Sudoeste 30 Sudoeste 0 -- -- 46
2017-11-22 14:00:00 15 24 Sudoeste 34 Sudoeste 0 -- -- 47
2017-11-22 13:00:00 14.3 23 Sudoeste 30 Sudoeste 0 -- -- 51
2017-11-22 12:00:00 12.2 18 Sur 23 Sur 0 -- -- 57
2017-11-22 11:00:00 9.5 15 Sur 20 Sur 0 -- -- 63
2017-11-22 10:00:00 6 10 Sur 14 Sur 0 -- -- 73
2017-11-22 09:00:00 1.1 14 Sur 17 Sur 0 -- -- 82
2017-11-22 08:00:00 0.4 14 Sur 19 Sur 0 -- -- 80
2017-11-22 07:00:00 1.1 8 Sur 20 Sur 0 -- -- 74
2017-11-22 06:00:00 2.8 12 Sur 18 Sur 0 -- -- 71
2017-11-22 05:00:00 2.7 14 Sur 18 Sur 0 -- -- 71
2017-11-22 04:00:00 2.8 15 Sur 18 Sur 0 -- -- 69
2017-11-22 03:00:00 4 18 Sur 19 Sur 0 -- -- 69
2017-11-22 02:00:00 4.9 12 Sur 15 Sur 0 -- -- 67
2017-11-22 01:00:00 5.6 9 Sur 13 Sur 0 -- -- 64
2017-11-22 00:00:00 6.9 8 Sudoeste 12 Sudoeste 0 -- -- 62
2017-11-21 23:00:00 6.6 12 Sur 14 Sur 0 -- -- 64
2017-11-21 22:00:00 6.5 10 Sur 12 Sur 0 -- -- 64
2017-11-21 21:00:00 8.3 10 Sur 13 Sur 0 -- -- 61
2017-11-21 20:00:00 9.2 7 Sur 10 Sur 0 -- -- 61
2017-11-21 19:00:00 9.8 4 Sur 5 Sur 0 -- -- 59
2017-11-21 18:00:00 11.3 0 Calma 10 Noroeste 0 -- -- 55
2017-11-21 17:00:00 12.8 8 Noroeste 12 Noroeste 0 -- -- 53
2017-11-21 16:00:00 13.9 5 Noroeste 11 Oeste 0 -- -- 50
2017-11-21 15:00:00 14.4 4 Sudoeste 11 Sudoeste 0 -- -- 50
2017-11-21 14:00:00 13.6 4 Sur 10 Sur 0 -- -- 53
2017-11-21 13:00:00 12.7 5 Sur 13 Sur 0 -- -- 55
2017-11-21 12:00:00 10.2 8 Sur 14 Sur 0 -- -- 61
2017-11-21 11:00:00 7.7 10 Sur 14 Sudoeste 0 -- -- 68
2017-11-21 10:00:00 3.8 9 Sur 16 Sur 0 -- -- 77
2017-11-21 09:00:00 3.1 6 Sur 9 Sur 0 -- -- 75
2017-11-21 08:00:00 1.6 6 Sudeste 10 Sur 0 -- -- 76
2017-11-21 07:00:00 0.3 9 Sur 12 Sur 0 -- -- 76
2017-11-21 06:00:00 4.3 5 Sur 9 Sudoeste 0 -- -- 70
2017-11-21 05:00:00 3.4 8 Sudoeste 10 Sur 0 -- -- 69
2017-11-21 04:00:00 4.6 9 Sur 10 Sur 0 -- -- 65
2017-11-21 03:00:00 5.6 5 Sudeste 7 Sur 0 -- -- 63
2017-11-21 02:00:00 6.6 6 Sur 10 Sudoeste 0 -- -- 61
2017-11-21 01:00:00 6.6 4 Sudoeste 6 Sudoeste 0 -- -- 59
2017-11-21 00:00:00 6.2 0 Calma 5 Oeste 0 -- -- 62
2017-11-20 23:00:00 7.1 3 Noroeste 8 Oeste 0 -- -- 61
2017-11-20 22:00:00 7.6 5 Oeste 7 Oeste 0 -- -- 59
2017-11-20 21:00:00 9 6 Sudoeste 8 Sudoeste 0 -- -- 54
2017-11-20 20:00:00 7.7 3 Sudoeste 8 Sudoeste 0 -- -- 54
2017-11-20 19:00:00 10 6 Sudoeste 10 Sudoeste 0 -- -- 51
2017-11-20 18:00:00 9.9 10 Sudoeste 12 Sudoeste 0 -- -- 51
2017-11-20 17:00:00 13.8 8 Sudoeste 13 Sudoeste 0 -- -- 44
2017-11-20 16:00:00 15.4 6 Sudoeste 14 Sudoeste 0 -- -- 45
2017-11-20 15:00:00 15.4 5 Sudoeste 12 Oeste 0 -- -- 48
2017-11-20 14:00:00 13.6 5 Sudoeste 10 Oeste 0 -- -- 55
2017-11-20 13:00:00 11.8 4 Sudeste 10 Norte 0 -- -- 58
2017-11-20 12:00:00 9.1 4 Norte 10 Este 0 -- -- 64
2017-11-20 11:00:00 7.6 3 Norte 6 Norte 0 -- -- 68
2017-11-20 10:00:00 4.2 4 Oeste 10 Sudoeste 0 -- -- 77
2017-11-20 09:00:00 -0.8 7 Sudoeste 8 Sudoeste 0 -- -- 82
2017-11-20 08:00:00 1 5 Sudeste 8 Este 0 -- -- 77
2017-11-20 07:00:00 1.5 3 Sur 6 Sudeste 0 -- -- 73
2017-11-20 06:00:00 1.4 6 Este 9 Nordeste 0 -- -- 77
2017-11-20 05:00:00 -0.1 8 Nordeste 10 Nordeste 0 -- -- 74
2017-11-20 04:00:00 0.4 4 Norte 7 Norte 0 -- -- 72
2017-11-20 03:00:00 1.7 2 Norte 12 Este 0 -- -- 69
2017-11-20 02:00:00 2.5 6 Este 9 Este 0 -- -- 65
2017-11-20 01:00:00 2.2 10 Este 17 Nordeste 0 -- -- 64
2017-11-20 00:00:00 3.3 17 Nordeste 20 Nordeste 0 -- -- 63
2017-11-19 23:00:00 2.5 12 Nordeste 16 Nordeste 0 -- -- 57
2017-11-19 22:00:00 4.8 11 Este 12 Este 0 -- -- 47
2017-11-19 21:00:00 6.2 9 Este 10 Este 0 -- -- 41
2017-11-19 20:00:00 7.4 8 Este 12 Este 0 -- -- 38
2017-11-19 19:00:00 8 9 Este 12 Nordeste 0 -- -- 36
2017-11-19 18:00:00 10.8 7 Nordeste 13 Nordeste 0 -- -- 36
2017-11-19 17:00:00 13.8 9 Nordeste 13 Nordeste 0 -- -- 34
2017-11-19 16:00:00 14.1 7 Norte 11 Norte 0 -- -- 40
2017-11-19 15:00:00 12.4 4 Norte 11 Norte 0 -- -- 49
2017-11-19 14:00:00 12.1 5 Este 9 Este 0 -- -- 53
2017-11-19 13:00:00 9.7 5 Este 10 Este 0 -- -- 62
2017-11-19 12:00:00 7.8 6 Este 11 Sudeste 0 -- -- 70
2017-11-19 11:00:00 5.6 8 Este 12 Este 0 -- -- 86
2017-11-19 10:00:00 3.4 4 Este 6 Este 0 -- -- 99
2017-11-19 09:00:00 0.9 4 Sudeste 10 Sudeste 0 -- -- 99
2017-11-19 08:00:00 -1.2 4 Este 17 Este 0 -- -- 99
2017-11-19 07:00:00 -0.6 12 Este 17 Este 0 -- -- 99
2017-11-19 06:00:00 0 6 Este 13 Este 0 -- -- 99
2017-11-19 05:00:00 -0.6 9 Este 17 Este 0 -- -- 99
2017-11-19 04:00:00 0.6 14 Este 17 Este 0 -- -- 99
2017-11-19 03:00:00 1.4 13 Este 24 Este 0 -- -- 99
2017-11-19 02:00:00 2.3 21 Este 26 Este 0 -- -- 99
2017-11-19 01:00:00 3 13 Este 31 Este 0 -- -- 99
2017-11-19 00:00:00 4 27 Nordeste 34 Nordeste 0 -- -- 99
2017-11-18 23:00:00 4.3 21 Este 29 Nordeste 0 -- -- 99
2017-11-18 22:00:00 4.4 23 Este 31 Este 0 -- -- 99
2017-11-18 21:00:00 4.8 18 Este 24 Este 0 -- -- 98
2017-11-18 20:00:00 5.9 18 Este 22 Nordeste 0 -- -- 92
2017-11-18 19:00:00 7.6 18 Este 24 Este 0 -- -- 85
2017-11-18 18:00:00 9.3 12 Este 22 Nordeste 0 -- -- 77
2017-11-18 17:00:00 11.7 17 Nordeste 24 Nordeste 0 -- -- 61
2017-11-18 16:00:00 12.9 20 Nordeste 27 Este 0 -- -- 58
2017-11-18 15:00:00 13.5 21 Nordeste 29 Nordeste 0 -- -- 61
2017-11-18 14:00:00 13.6 22 Este 33 Nordeste 0 -- -- 64
2017-11-18 13:00:00 12.9 22 Nordeste 30 Nordeste 0 -- -- 71
2017-11-18 12:00:00 11.5 24 Nordeste 30 Este 0 -- -- 78
2017-11-18 11:00:00 9 22 Nordeste 28 Este 0 -- -- 86
2017-11-18 10:00:00 6.4 21 Este 25 Este 0 -- -- 92
2017-11-18 09:00:00 4.3 18 Este 25 Este 0 -- -- 96
2017-11-18 08:00:00 2.7 18 Este 21 Este 0 -- -- 98
2017-11-18 07:00:00 2.6 18 Este 21 Este 0 -- -- 96
2017-11-18 06:00:00 3.6 19 Este 24 Este 0 -- -- 91
2017-11-18 05:00:00 4.3 19 Este 27 Este 0 -- -- 86
2017-11-18 04:00:00 3.9 20 Este 24 Este 0 -- -- 84
2017-11-18 03:00:00 4.4 17 Este 22 Este 0 -- -- 80
2017-11-18 02:00:00 4.6 17 Este 23 Nordeste 0 -- -- 74
2017-11-18 01:00:00 5.4 19 Nordeste 22 Nordeste 0 -- -- 70
2017-11-18 00:00:00 6.1 19 Este 27 Nordeste 0 -- -- 67
2017-11-17 23:00:00 6.5 18 Este 21 Nordeste 0 -- -- 68
2017-11-17 22:00:00 7.2 17 Este 23 Este 0 -- -- 67
2017-11-17 21:00:00 9.3 19 Este 27 Este 0 -- -- 62
2017-11-17 20:00:00 8.9 15 Nordeste 19 Este 0 -- -- 62
2017-11-17 19:00:00 9.3 12 Este 16 Este 0 -- -- 59
2017-11-17 18:00:00 12.1 13 Nordeste 19 Nordeste 0 -- -- 54
2017-11-17 17:00:00 14.6 13 Nordeste 20 Nordeste 0 -- -- 49
2017-11-17 16:00:00 16.3 12 Nordeste 17 Nordeste 0 -- -- 48
2017-11-17 15:00:00 15.8 11 Nordeste 17 Nordeste 0 -- -- 51
2017-11-17 14:00:00 14 7 Nordeste 19 Norte 0 -- -- 57
2017-11-17 13:00:00 12.1 9 Norte 13 Norte 0 -- -- 61
2017-11-17 12:00:00 10.7 7 Norte 10 Norte 0 -- -- 68
2017-11-17 11:00:00 8.9 5 Nordeste 10 Nordeste 0 -- -- 71
2017-11-17 10:00:00 7.5 0 Calma 4 Este 0 -- -- 77
2017-11-17 09:00:00 3.6 4 Nordeste 13 Este 0 -- -- 89
2017-11-17 08:00:00 2.6 11 Este 17 Este 0 -- -- 89
2017-11-17 07:00:00 3.3 11 Este 15 Este 0 -- -- 88
2017-11-17 06:00:00 2.7 10 Nordeste 16 Este 0 -- -- 90
2017-11-17 05:00:00 3 14 Este 17 Este 0 -- -- 91
2017-11-17 04:00:00 2.9 15 Nordeste 17 Nordeste 0 -- -- 92
2017-11-17 03:00:00 2.7 13 Nordeste 15 Nordeste 0 -- -- 94
2017-11-17 02:00:00 2.7 11 Nordeste 18 Nordeste 0 -- -- 91
2017-11-17 01:00:00 3.5 13 Nordeste 15 Nordeste 0 -- -- 85
2017-11-17 00:00:00 4.1 13 Nordeste 14 Nordeste 0 -- -- 81
2017-11-16 23:00:00 5.8 13 Nordeste 16 Nordeste 0 -- -- 74
2017-11-16 22:00:00 6 10 Nordeste 12 Nordeste 0 -- -- 68
2017-11-16 21:00:00 8.6 8 Norte 10 Norte 0 -- -- 62
2017-11-16 20:00:00 9.4 6 Norte 8 Norte 0 -- -- 59
2017-11-16 19:00:00 9.5 7 Noroeste 8 Noroeste 0 -- -- 58
2017-11-16 18:00:00 11.9 5 Noroeste 9 Noroeste 0 -- -- 53
2017-11-16 17:00:00 15 5 Norte 7 Norte 0 -- -- 47
2017-11-16 16:00:00 15.4 4 Norte 10 Norte 0 -- -- 45
2017-11-16 15:00:00 14.7 4 Nordeste 8 Este 0 -- -- 46
2017-11-16 14:00:00 13.7 3 Nordeste 9 Norte 0 -- -- 53
2017-11-16 13:00:00 11.9 3 Noroeste 10 Norte 0 -- -- 58
2017-11-16 12:00:00 11.3 0 Calma 0 Calma 0 -- -- 60
2017-11-16 11:00:00 10 0 Calma 0 Calma 0 -- -- 70
2017-11-16 10:00:00 6.6 0 Calma 10 Este 0 -- -- 80
2017-11-16 09:00:00 3 5 Sudeste 6 Sudeste 0 -- -- 86
2017-11-16 08:00:00 1.5 3 Sudeste 5 Sudeste 0 -- -- 88
2017-11-16 07:00:00 2.5 0 Calma 4 Sur 0 -- -- 86
2017-11-16 06:00:00 2.4 3 Oeste 6 Sudoeste 0 -- -- 87
2017-11-16 05:00:00 0.9 5 Sudoeste 6 Sudoeste 0 -- -- 84
2017-11-16 04:00:00 3.8 5 Sur 9 Sudoeste 0 -- -- 81
2017-11-16 03:00:00 3.1 8 Sudoeste 9 Sudoeste 0 -- -- 79
2017-11-16 02:00:00 4.5 2 Sudeste 5 Sur 0 -- -- 66
2017-11-16 01:00:00 5 4 Norte 5 Norte 0 -- -- 62
2017-11-16 00:00:00 4.5 5 Noroeste 7 Norte 0 -- -- 65
2017-11-15 23:00:00 5.7 5 Noroeste 6 Norte 0 -- -- 66
2017-11-15 22:00:00 5.2 0 Calma 6 Sudoeste 0 -- -- 71
2017-11-15 21:00:00 5.6 4 Sudoeste 7 Sudoeste 0 -- -- 68
2017-11-15 20:00:00 6.7 0 Calma 4 Sudoeste 0 -- -- 63
2017-11-15 19:00:00 7.8 0 Calma 3 Norte 0 -- -- 59
2017-11-15 18:00:00 9.4 2 Norte 5 Noroeste 0 -- -- 56
2017-11-15 17:00:00 12.6 0 Calma 8 Noroeste 0 -- -- 52
2017-11-15 16:00:00 12 4 Noroeste 9 Sudoeste 0 -- -- 53
2017-11-15 15:00:00 11.5 4 Sudeste 10 Sudeste 0 -- -- 56
2017-11-15 14:00:00 10.1 5 Sudeste 12 Sudeste 0 -- -- 60
2017-11-15 13:00:00 8.5 4 Sudeste 10 Este 0 -- -- 68
2017-11-15 12:00:00 6.6 4 Este 9 Sudeste 0 -- -- 72
2017-11-15 11:00:00 4.6 2 Este 9 Este 0 -- -- 79
2017-11-15 10:00:00 2.6 5 Este 12 Este 0 -- -- 84
2017-11-15 09:00:00 0.4 10 Este 18 Este 0 -- -- 91
2017-11-15 08:00:00 -1.1 9 Este 17 Este 0 -- -- 91
2017-11-15 07:00:00 -1 15 Este 19 Este 0 -- -- 90
2017-11-15 06:00:00 -0.8 13 Este 21 Este 0 -- -- 90
2017-11-15 05:00:00 -1 18 Este 26 Este 0 -- -- 90
2017-11-15 04:00:00 -1.5 17 Este 21 Este 0 -- -- 90
2017-11-15 03:00:00 -0.9 12 Nordeste 22 Este 0 -- -- 87
2017-11-15 02:00:00 0 12 Este 33 Este 0 -- -- 81
2017-11-15 01:00:00 0.4 26 Este 32 Este 0 -- -- 80
2017-11-15 00:00:00 1.4 21 Nordeste 28 Nordeste 0 -- -- 78